Вернуться в каталог

FENGYUN 1C DEB

АктивенSSO
NORAD 32165·DEBRIS·🇨🇳 China

Запущен May 10, 1999 с Taiyuan Satellite Launch Center

Loading…

Ближайшие Пролёты (ближайшие 24 часа)

TLE

УстаревшееSource: Space-Track

Эпоха: Aug 19, 2026, 13:25 UTC

1 32165U 99025CTK 26231.55970968  .00001618  00000-0  94584-3 0  9994
2 32165  98.6249 149.7178 0136183 154.7824 206.0076 14.05118458666407

Отслеживайте FENGYUN 1C DEB в реальном времени с AllMySat

Download on the App Store